[Date Prev][Date Next][Thread Prev][Thread Next] - [Date Index][Thread Index][Author Index]
2 Line ISS Keps 12-28
- Subject: [sarex] 2 Line ISS Keps 12-28
- From: "Dave Larsen PhD" <doc@xxxxxxxxxxx>
- Date: Sun, 28 Dec 2003 02:12:03 -0800
ISS
1 25544U 98067A 03362.22145126 .00021406 00000-0 20965-3 0 9412
2 25544 51.6292 120.6314 0006176 308.2321 136.2477 15.66037123291346
----
Via the sarex mailing list at AMSAT.ORG courtesy of AMSAT-NA.
To unsubscribe, send "unsubscribe sarex" to Majordomo@amsat.org
AMSAT Home